Regional Weather Roundup
Issued by NWS

Home | Current Version | Previous Version | Graphics & Text | Print | Product List | Glossary On
Versions: 1 2 3 4 5 6 7 8 9 10 11 12 13 14 15 16 17 18 19 20 21 22 23 24 25 26 27 28 29 30 31 32 33 34 35 36 37 38 39 40 41 42 43 44 45 46 47 48 49 50
000
ASUS43 KLOT 141106
RWRIL

ILLINOIS REGIONAL WEATHER ROUNDUP
NATIONAL WEATHER SERVICE CHICAGO/ROMEOVILLE IL
600 AM CDT MON JUL 14 2014

NOTE: "FAIR" INDICATES FEW OR NO CLOUDS BELOW 12,000 FEET WITH NO
SIGNIFICANT WEATHER AND/OR OBSTRUCTIONS TO VISIBILITY.

* THESE STATIONS ARE NOT UNDER NWS QUALITY CONTROL. THEY ALSO MAY NOT
  REPORT WEATHER SUCH AS PRECIPITATION OR FOG.

ILZ001-002-007-009-015-016-024-141200-
NORTHWEST ILLINOIS

CITY           SKY/WX    TMP DP  RH WIND       PRES   REMARKS
MOLINE         PTCLDY    65  63  93 CALM      29.86F
STERLING*      PTCLDY    64  63  94 CALM      29.88R
SAVANNA*       PTCLDY    63  57  80 E6        29.87F
$$

ILZ003-004-008-010-011-017-018-141200-
NORTH CENTRAL ILLINOIS

CITY           SKY/WX    TMP DP  RH WIND       PRES   REMARKS
ROCKFORD       RAIN      61  56  83 W3        29.91R
FREEPORT*      RAIN      57  55  93 CALM      29.91F
DE KALB*       PTCLDY    61  56  86 CALM      29.87F
PERU*          FOG       63  62  97 S8        29.88S VSB<1/4
$$

ILZ005-006-012>014-019>023-141200-
NORTHEAST ILLINOIS

CITY           SKY/WX    TMP DP  RH WIND       PRES   REMARKS
CHICAGO-OHARE  PTCLDY    64  53  67 CALM      29.86F
CHICAGO-MIDWAY PTCLDY    68  56  65 CALM      29.86F
AURORA         PTCLDY    59  56  89 CALM      29.87F FOG
LANSING*       CLEAR     62  60  91 CALM      29.88S
WAUKEGAN       CLEAR     58  56  93 SW3       29.85F FOG
DUPAGE AIRPORT MOCLDY    62  57  83 CALM      29.86F
KANKAKEE*      FOG       62  62  99 CALM      29.89S VSB<1/4
WHEELING       PTCLDY    64  57  78 CALM      29.87F
MORRIS*        MOCLDY    63  63 100 CALM      29.88R FOG
ROMEOVILLE*    CLEAR     62  61  97 CALM      29.87S FOG
NORTHERLY ISL    N/A     67  56  67 CALM        N/A
$$

LMZ740>746-141200-
SOUTHERN LAKE MICHIGAN

STATION/POSITION SKY/WX   TEMP    WIND        PRES    VSBY  WAVE
                          AIR SEA DIR/SP/G                  HT/PER
                          (F)     (DEG/KT/KT) (MB)    (MI)  (FT/S)
SOUTHERN BUOY              65 63  220/  4/  4 1010.9F         0
WAUKEGAN HARBOR            66     270/  4/  5 1012.2S
HARRISON CRIB              69     170/  3/  4   N/A
BURNHAM HARBOR             66      CALM  /  1   N/A
CALUMET HARBOR             66        CALM     1012.4S
MICHIGAN CITY              66     110/  5/  6   N/A
$$

ILZ025>027-034>036-040-047-049-050-058-095>099-141200-
WEST-CENTRAL ILLINOIS

CITY           SKY/WX    TMP DP  RH WIND       PRES   REMARKS
QUINCY         CLEAR     68  67  96 SW6       29.91S
GALESBURG*     MOCLDY    64  64  99 CALM      29.89S
MACOMB*        CLEAR     65  65 100 W5        29.91F
JACKSONVILLE*  PTCLDY    69  69  98 SW3       29.92S FOG
$$

ILZ028>032-037-038-041>044-048-051>054-059>061-141200-
CENTRAL ILLINOIS

CITY           SKY/WX    TMP DP  RH WIND       PRES   REMARKS
PONTIAC        CLEAR     63  63 100 S3        29.89S FOG
BLOOMINGTON    CLEAR     64  62  93 CALM      29.92S
DECATUR        MOCLDY    68  66  93 CALM      29.91S
PEORIA         CLEAR     67  64  90 CALM      29.90S
LACON*         CLEAR     64  63  95 SE3       29.87F
LINCOLN*       PTCLDY    66  64  94 CALM      29.87F FOG
SPRINGFIELD    CLOUDY    68  67  96 CALM      29.90F FOG
TAYLORVILLE    FOG       66  66 100 CALM      29.91F VSB<1/4
$$

ILZ033-039-045-046-055>057-062-063-141200-
EAST-CENTRAL ILLINOIS

CITY           SKY/WX    TMP DP  RH WIND       PRES   REMARKS
CHAMPAIGN      MOCLDY    67  65  93 NW3       29.90F
MATTOON        MOCLDY    68  67  96 CALM      29.90S FOG
PARIS*         CLOUDY    66  66 100 CALM      29.91S FOG
$$

ILZ079-100>102-141200-
SOUTHWEST ILLINOIS

CITY           SKY/WX    TMP DP  RH WIND       PRES   REMARKS
ALTON          CLOUDY    72  72 100 CALM      29.91F
BELLEVILLE     CLOUDY    72  72 100 NW1       29.90F
CAHOKIA*       CLOUDY    73  71  93 CALM      29.90F
SPARTA*        CLOUDY    70  68  94 CALM      29.93S
$$

ILZ064>066-069>071-074>076-080>082-084>086-088>090-092>094-141200-
SOUTH-CENTRAL ILLINOIS

CITY           SKY/WX    TMP DP  RH WIND       PRES   REMARKS
CARBONDALE     LGT RAIN  71  69  93 W3        29.93R
CAIRO*         CLOUDY    74  70  87 S6        29.94F THUNDER
MARION         RAIN      72  70  94 SW3       29.93S
MT. VERNON     CLOUDY    72  66  83 CALM      29.93S
CENTRALIA*     CLOUDY    71  69  93 CALM      29.92S
SALEM*         CLOUDY    73  72  96 CALM      29.92F
METROPOLIS*    TSTM      72  70  93 W3        29.94F
$$

ILZ067-068-072-073-078-083-087-091-141200-
SOUTHEAST ILLINOIS

CITY           SKY/WX    TMP DP  RH WIND       PRES   REMARKS
FLORA*         CLOUDY    72  71  97 CALM      29.92S
HARRISBURG*    CLOUDY    71  71 100 CALM      29.93S
ROBINSON*      CLOUDY    73  72  97 S6        29.92R
CARMI*         CLOUDY    71  71  98 CALM      29.92S
$$

ABBREVIATIONS USED IN REMARKS
   TC - TEMPERATURE IN CELSIUS
  WCI - WIND CHILL INDEX
   HX - HEAT INDEX
  VSB - VISIBILITY
$$



USA.gov is the U.S. government's official web portal to all federal, state and local government web resources and services.